Location: Tel Aviv
(32.0670°N, 34.7670°E)
Time: 01:02:40
(UTC+02:00)

Envisat - Pass Details

Date: 06 December 2021
Orbit: 764 x 766 km, 98.2° (Epoch: 26 January)

Event Time Altitude Azimuth Distance (km) Brightness Sun altitude
Rises 04:40:24 0° 10° (N) 3,235 6.2 -22.2°
Reaches altitude 10° 04:42:43 10° 10° (N) 2,306 5.4 -21.7°
Maximum altitude 04:47:48 81° 283° (WNW) 778 2.8 -20.7°
Drops below altitude 10° 04:52:51 10° 197° (SSW) 2,291 5.4 -19.6°
Sets 04:55:08 0° 196° (SSW) 3,213 6.2 -19.2°
